Location: Unspecified
(48.8656°N, 0.0000°E)
Time: 21:08:11
(UTC+00:00)

Vanguard 1 - Pass Details

Date: 17 June 2019
Orbit: 655 x 3829 km, 34.2° (Epoch: 20 August)

Event Time Altitude Azimuth Distance (km) Brightness Sun altitude
Rises 04:04:22 0° 227° (SW) 6,747 13.6 0.3°
Reaches altitude 10° 04:10:24 10° 218° (SW) 5,161 13.1 1.1°
Maximum altitude 04:20:35 26° 170° (S) 2,942 12.3 2.5°
Drops below altitude 10° 04:27:11 10° 117° (ESE) 3,236 13.2 3.4°
Sets 04:29:57 0° 103° (ESE) 3,879 13.9 3.8°
